| time (UTC) | temp C | wind direction | speed KPH | gust KPH | rain 1hr cm | rain 24hr cm | rain mn cm | humidity % | barometer mb |
| 20260509174531 | 18 | 105 | 1.6 | 8.0 | 0.00 | 0.03 | 0.03 | 57 | 1015.8 |
| 20260509173030 | 19 | 126 | 1.6 | 9.7 | 0.00 | 0.03 | 0.03 | 54 | 1015.8 |
| 20260509171532 | 20 | 59 | 3.2 | 9.7 | 0.00 | 0.03 | 0.03 | 51 | 1016.0 |
| 20260509170029 | 20 | 36 | 0.0 | 4.8 | 0.00 | 0.03 | 0.03 | 53 | 1016.0 |
| 20260509164528 | 20 | 32 | 1.6 | 4.8 | 0.00 | 0.03 | 0.03 | 53 | 1016.1 |
| 20260509163027 | 20 | 38 | 0.0 | 4.8 | 0.00 | 0.03 | 0.03 | 51 | 1016.1 |
| 20260509161526 | 21 | 47 | 1.6 | 6.4 | 0.00 | 0.03 | 0.03 | 50 | 1016.2 |
| 20260509160027 | 21 | 30 | 1.6 | 8.0 | 0.00 | 0.03 | 0.03 | 50 | 1016.3 |
| 20260509154524 | 21 | 348 | 1.6 | 9.7 | 0.00 | 0.03 | 0.03 | 51 | 1016.4 |
| 20260509153023 | 21 | 59 | 1.6 | 6.4 | 0.00 | 0.03 | 0.03 | 50 | 1016.5 |
| 20260509151522 | 21 | 317 | 1.6 | 6.4 | 0.00 | 0.03 | 0.03 | 50 | 1016.6 |
| 20260509150021 | 21 | 289 | 1.6 | 8.0 | 0.00 | 0.03 | 0.03 | 50 | 1016.6 |
| 20260509144529 | 21 | 34 | 1.6 | 8.0 | 0.00 | 0.03 | 0.03 | 51 | 1016.8 |
| 20260509143020 | 21 | 57 | 1.6 | 6.4 | 0.00 | 0.03 | 0.03 | 52 | 1017.0 |
| 20260509141516 | 21 | 332 | 0.0 | 4.8 | 0.00 | 0.03 | 0.03 | 55 | 1017.2 |
| 20260509140012 | 20 | 37 | 0.0 | 6.4 | 0.00 | 0.03 | 0.03 | 57 | 1017.3 |
| 20260509134510 | 20 | 287 | 1.6 | 9.7 | 0.00 | 0.03 | 0.03 | 57 | 1017.5 |
| 20260509133012 | 19 | 230 | 1.6 | 4.8 | 0.00 | 0.03 | 0.03 | 61 | 1017.7 |
| 20260509131503 | 18 | 254 | 1.6 | 4.8 | 0.00 | 0.03 | 0.03 | 63 | 1017.9 |
| 20260509130002 | 18 | 254 | 1.6 | 4.8 | 0.00 | 0.03 | 0.03 | 61 | 1018.3 |
| 20260509124500 | 18 | 254 | 1.6 | 4.8 | 0.00 | 0.03 | 0.03 | 60 | 1018.3 |
| 20260509123058 | 18 | 215 | 0.0 | 6.4 | 0.00 | 0.03 | 0.03 | 58 | 1018.4 |
| 20260509121557 | 18 | 101 | 1.6 | 8.0 | 0.00 | 0.03 | 0.03 | 59 | 1018.6 |
| 20260509120101 | 18 | 63 | 1.6 | 6.4 | 0.00 | 0.03 | 0.03 | 63 | 1018.6 |
| 20260509114555 | 18 | 192 | 0.0 | 4.8 | 0.00 | 0.03 | 0.03 | 60 | 1018.7 |
| 20260509113103 | 18 | 46 | 3.2 | 6.4 | 0.00 | 0.03 | 0.03 | 60 | 1018.8 |
| 20260509111554 | 18 | 55 | 3.2 | 8.0 | 0.00 | 0.03 | 0.03 | 58 | 1018.9 |
| 20260509110050 | 18 | 283 | 0.0 | 6.4 | 0.00 | 0.03 | 0.03 | 62 | 1019.0 |
| 20260509104548 | 17 | 236 | 1.6 | 4.8 | 0.00 | 0.03 | 0.03 | 62 | 1019.3 |
| 20260509103045 | 17 | 306 | 0.0 | 3.2 | 0.00 | 0.03 | 0.03 | 62 | 1019.4 |
| 20260509101545 | 17 | 202 | 1.6 | 11.3 | 0.00 | 0.03 | 0.03 | 66 | 1019.5 |
| 20260509100041 | 17 | 180 | 0.0 | 4.8 | 0.00 | 0.03 | 0.03 | 67 | 1019.5 |
| 20260509094538 | 16 | 217 | 0.0 | 4.8 | 0.00 | 0.03 | 0.03 | 66 | 1019.7 |
| 20260509093036 | 15 | 209 | 1.6 | 8.0 | 0.00 | 0.03 | 0.03 | 70 | 1019.8 |
| 20260509091535 | 16 | 145 | 1.6 | 6.4 | 0.00 | 0.03 | 0.03 | 67 | 1019.8 |
| 20260509090031 | 15 | 157 | 1.6 | 8.0 | 0.00 | 0.03 | 0.03 | 71 | 1019.9 |
| 20260509084534 | 15 | 181 | 1.6 | 8.0 | 0.00 | 0.03 | 0.03 | 73 | 1020.0 |
| 20260509083034 | 14 | 217 | 3.2 | 6.4 | 0.00 | 0.03 | 0.03 | 73 | 1019.9 |
| 20260509081528 | 14 | 239 | 1.6 | 6.4 | 0.00 | 0.03 | 0.03 | 74 | 1020.0 |
| 20260509080033 | 13 | 239 | 1.6 | 6.4 | 0.00 | 0.03 | 0.03 | 75 | 1020.0 |
| 20260509074519 | 13 | 98 | 0.0 | 4.8 | 0.00 | 0.03 | 0.03 | 75 | 1019.9 |
| 20260509073016 | 12 | 48 | 0.0 | 3.2 | 0.00 | 0.03 | 0.03 | 78 | 1019.9 |
| 20260509071511 | 12 | 48 | 0.0 | 3.2 | 0.00 | 0.03 | 0.03 | 83 | 1020.0 |
| 20260509070009 | 11 | 48 | 0.0 | 3.2 | 0.00 | 0.03 | 0.03 | 86 | 1020.3 |
| 20260509064505 | 10 | 46 | 0.0 | 3.2 | 0.00 | 0.03 | 0.03 | 90 | 1020.1 |
| 20260509063001 | 8 | 48 | 0.0 | 1.6 | 0.00 | 0.03 | 0.03 | 91 | 1019.9 |
| 20260509061616 | 8 | 48 | 0.0 | 1.6 | 0.00 | 0.03 | 0.03 | 91 | 1019.9 |
| 20260509060138 | 7 | 48 | 0.0 | 1.6 | 0.00 | 0.03 | 0.03 | 91 | 1019.9 |
| 20260509054603 | 7 | 48 | 0.0 | 1.6 | 0.00 | 0.03 | 0.03 | 91 | 1019.8 |
| 20260509053058 | 6 | 48 | 0.0 | 3.2 | 0.00 | 0.03 | 0.03 | 91 | 1019.7 |
| 20260509051559 | 6 | 48 | 0.0 | 4.8 | 0.00 | 0.03 | 0.03 | 91 | 1019.5 |
| 20260509050134 | 6 | 48 | 1.6 | 4.8 | 0.00 | 0.03 | 0.03 | 91 | 1019.7 |
| 20260509044603 | 5 | 48 | 0.0 | 3.2 | 0.00 | 0.03 | 0.03 | 91 | 1019.6 |
| 20260509043056 | 5 | 48 | 0.0 | 3.2 | 0.03 | 0.03 | 0.03 | 90 | 1019.6 |
| 20260509041554 | 5 | 48 | 0.0 | 4.8 | 0.03 | 0.03 | 0.03 | 90 | 1019.5 |
| 20260509040058 | 5 | 48 | 0.0 | 1.6 | 0.03 | 0.03 | 0.03 | 90 | 1019.6 |
| 20260509034553 | 5 | 48 | 0.0 | 1.6 | 0.00 | 0.00 | 0.00 | 90 | 1019.5 |
| 20260509033052 | 5 | 48 | 0.0 | 0.0 | 0.00 | 0.00 | 0.00 | 90 | 1019.5 |
| 20260509031551 | 5 | 48 | 0.0 | 4.8 | 0.00 | 0.00 | 0.00 | 90 | 1019.4 |
| 20260509030049 | 5 | 48 | 1.6 | 4.8 | 0.00 | 0.00 | 0.00 | 90 | 1019.5 |
| 20260509024547 | 5 | 68 | 0.0 | 3.2 | 0.00 | 0.00 | 0.00 | 89 | 1019.5 |
| 20260509023058 | 5 | 68 | 0.0 | 3.2 | 0.00 | 0.00 | 0.00 | 89 | 1019.4 |
| 20260509021546 | 5 | 43 | 0.0 | 4.8 | 0.00 | 0.00 | 0.00 | 89 | 1019.2 |
| 20260509020044 | 5 | 22 | 0.0 | 4.8 | 0.00 | 0.00 | 0.00 | 89 | 1019.1 |
| 20260509014545 | 6 | 22 | 0.0 | 3.2 | 0.00 | 0.00 | 0.00 | 89 | 1019.2 |
| 20260509013043 | 6 | 22 | 0.0 | 3.2 | 0.00 | 0.00 | 0.00 | 89 | 1019.3 |
| 20260509011541 | 6 | 22 | 0.0 | 0.0 | 0.00 | 0.00 | 0.00 | 88 | 1019.4 |
| 20260509010041 | 6 | 22 | 0.0 | 0.0 | 0.00 | 0.00 | 0.00 | 88 | 1019.3 |
| 20260509004540 | 6 | 22 | 0.0 | 0.0 | 0.00 | 0.00 | 0.00 | 88 | 1019.3 |
| 20260509003050 | 6 | 22 | 0.0 | 0.0 | 0.00 | 0.00 | 0.00 | 87 | 1019.3 |
| 20260509001537 | 6 | 22 | 0.0 | 0.0 | 0.00 | 0.00 | 0.00 | 86 | 1019.2 |
| 20260509000041 | 6 | 22 | 0.0 | 0.0 | 0.00 | 0.00 | 0.00 | 86 | 1019.2 |
| 20260508234537 | 6 | 22 | 0.0 | 0.0 | 0.00 | 0.00 | 0.00 | 86 | 1019.5 |
| 20260508233029 | 7 | 22 | 0.0 | 0.0 | 0.00 | 0.00 | 0.00 | 86 | 1019.4 |
| 20260508231527 | 7 | 22 | 0.0 | 0.0 | 0.00 | 0.00 | 0.00 | 85 | 1019.5 |
| 20260508230026 | 7 | 22 | 0.0 | 1.6 | 0.00 | 0.00 | 0.00 | 85 | 1019.6 |
| 20260508224524 | 7 | 22 | 0.0 | 1.6 | 0.00 | 0.00 | 0.00 | 84 | 1019.6 |
| 20260508223026 | 8 | 22 | 0.0 | 1.6 | 0.00 | 0.00 | 0.00 | 84 | 1019.7 |
| 20260508221519 | 8 | 22 | 0.0 | 1.6 | 0.00 | 0.00 | 0.00 | 83 | 1019.6 |
| 20260508220017 | 8 | 350 | 0.0 | 6.4 | 0.00 | 0.00 | 0.00 | 83 | 1019.4 |
| 20260508214516 | 8 | 29 | 0.0 | 3.2 | 0.00 | 0.00 | 0.00 | 82 | 1019.4 |
| 20260508213022 | 9 | 40 | 0.0 | 4.8 | 0.00 | 0.00 | 0.00 | 82 | 1019.2 |
| 20260508211515 | 9 | 53 | 0.0 | 3.2 | 0.00 | 0.00 | 0.00 | 81 | 1019.3 |
| 20260508210015 | 10 | 73 | 0.0 | 3.2 | 0.00 | 0.00 | 0.00 | 80 | 1019.4 |
| 20260508204513 | 10 | 48 | 1.6 | 6.4 | 0.00 | 0.00 | 0.00 | 79 | 1019.4 |
| 20260508203015 | 10 | 57 | 1.6 | 3.2 | 0.00 | 0.00 | 0.00 | 78 | 1019.3 |
| 20260508201519 | 10 | 30 | 1.6 | 6.4 | 0.00 | 0.00 | 0.00 | 78 | 1019.3 |
| 20260508200019 | 11 | 51 | 1.6 | 4.8 | 0.00 | 0.00 | 0.00 | 77 | 1019.2 |
| 20260508194510 | 11 | 65 | 1.6 | 6.4 | 0.00 | 0.00 | 0.00 | 76 | 1019.1 |
| 20260508193016 | 11 | 59 | 1.6 | 4.8 | 0.00 | 0.00 | 0.00 | 75 | 1018.9 |
| 20260508191514 | 11 | 69 | 0.0 | 4.8 | 0.00 | 0.00 | 0.00 | 74 | 1018.8 |
| 20260508190008 | 12 | 56 | 0.0 | 3.2 | 0.00 | 0.00 | 0.00 | 72 | 1018.6 |
| 20260508184508 | 12 | 59 | 0.0 | 3.2 | 0.00 | 0.00 | 0.00 | 70 | 1018.3 |
| 20260508183007 | 13 | 53 | 0.0 | 4.8 | 0.00 | 0.00 | 0.00 | 68 | 1018.1 |
| 20260508181505 | 13 | 290 | 0.0 | 4.8 | 0.00 | 0.00 | 0.00 | 67 | 1017.8 |
| 20260508180006 | 14 | 64 | 0.0 | 4.8 | 0.00 | 0.00 | 0.00 | 66 | 1017.6 |